Temp
23 23 21 23 32 33 30 29 30 29 29 27 27 28 26 25 26 24 20 19 18 18 18 18 19 19 19 19 19 19 19 19 19 19 19 19 19 19 19 19 19 19 19 19 19 19 19 19 19
20 21 23 30 33 31 30 31 30 30 27 26 26 26 26 24 21 20 20 19 18 18 18 17 18 19 19 19 19 19 19 19 19 19 19 19 19 19 19 19 19 19 19 19 19 19 19 19 19
23 21 29 34 33 31 30 30 30 28 28 28 26 25 25 21 21 21 20 19 18 18 18 18 19 19 19 19 19 19 19 19 19 19 19 19 19 19 19 19 19 19 19 19 19 19 19 19 19
22 25 29 33 31 31 30 30 29 29 28 27 26 25 22 21 21 20 19 19 18 18 18 19 19 19 19 19 19 19 19 19 19 19 19 19 19 19 19 19 20 19 19 19 19 19 19 18 19
24 29 34 32 31 31 31 30 30 30 28 27 27 25 22 20 20 20 20 19 19 19 18 19 19 19 19 19 19 19 18 18 19 19 19 19 19 19 19 19 19 19 19 19 19 19 19 18 18
32 32 33 32 31 31 31 30 30 29 27 26 25 24 20 20 20 20 20 21 21 19 18 18 19 19 19 19 19 19 19 19 19 19 19 19 19 19 19 19 19 19 19 19 19 18 18 18 18
32 35 33 33 31 31 31 30 31 29 28 27 25 25 18 20 20 20 20 21 20 19 19 18 17 18 19 19 19 19 19 19 19 19 19 19 19 19 19 19 19 19 19 19 19 18 18 18 18
32 35 34 34 33 31 31 30 30 30 27 25 26 25 20 20 20 20 20 20 19 18 17 18 18 17 17 19 19 19 19 19 19 19 19 19 19 19 19 19 19 19 19 19 19 18 18 18 18
30 35 34 33 33 32 31 31 28 28 26 24 25 25 22 20 20 20 20 20 19 19 19 18 18 18 18 17 18 19 19 19 19 19 19 19 18 18 18 18 18 19 19 19 19 19 18 18 18
34 35 34 34 34 33 31 31 29 29 27 24 23 22 20 20 20 20 20 20 19 19 19 19 19 18 18 18 17 17 17 17 17 17 17 17 18 18 18 18 18 18 18 19 18 18 18 18 18
34 34 33 32 32 32 31 30 30 30 30 26 23 21 20 20 20 20 20 20 19 19 19 19 19 18 18 18 18 18 18 18 18 17 17 17 18 18 18 18 18 18 18 18 18 18 18 17 17
33 32 32 31 31 32 32 30 28 28 26 24 22 22 21 21 21 21 21 20 19 19 19 19 18 17 18 18 18 18 19 18 18 18 17 17 17 18 17 18 18 17 17 17 17 18 17 17 17
33 32 31 31 31 31 31 29 27 25 24 23 22 22 22 22 21 21 21 20 19 19 19 18 18 17 17 17 18 18 18 18 18 18 18 17 18 18 18 17 17 17 17 17 17 17 17 17 17
32 31 31 31 31 31 31 29 28 24 24 23 23 23 22 22 22 21 21 20 20 19 19 19 18 18 18 18 17 18 18 18 18 18 18 17 17 17 18 17 17 17 18 17 17 17 17 17 17
31 31 31 31 31 31 31 30 28 25 24 24 24 23 23 22 22 21 21 20 20 20 19 19 18 18 18 18 18 17 17 18 18 18 17 17 17 17 17 17 17 17 18 18 17 16 16 16 17
33 33 31 32 31 30 30 29 27 26 26 25 24 24 23 22 22 21 21 21 20 19 19 18 19 19 18 18 18 18 18 18 18 18 18 17 17 18 17 18 18 17 17 16 16 17 17 17 17
33 32 33 31 31 32 32 30 28 27 27 26 25 24 24 23 22 22 21 21 20 20 19 19 18 18 18 17 17 17 17 17 18 18 18 18 18 18 17 17 18 18 18 18 18 17 16 16 17
32 33 33 32 32 31 32 30 29 27 28 27 26 26 25 24 24 22 22 21 21 20 19 19 19 18 18 18 18 18 18 18 18 18 18 18 18 18 18 18 18 18 18 18 17 18 16 17 16
34 33 33 33 33 32 32 30 30 28 28 28 28 26 26 25 25 23 22 21 21 20 20 19 18 18 18 18 18 18 18 17 17 18 17 17 17 18 18 18 17 17 17 16 16 16 16 16 16
33 33 33 32 31 32 31 30 30 29 29 28 28 27 26 26 25 23 22 22 21 21 20 19 19 18 19 18 18 18 18 18 17 17 17 17 16 16 17 17 16 16 16 16 16 16 16 16 16
33 33 33 32 30 32 30 30 28 29 28 28 27 27 26 26 25 24 23 22 22 21 20 20 20 20 19 19 18 18 18 19 19 19 18 17 15 16 16 15 15 15 15 15 15 16 16 16 16
33 33 33 32 30 31 31 31 29 30 28 28 27 26 26 25 25 25 24 23 22 21 20 19 19 20 19 19 18 17 18 18 18 17 16 16 15 16 16 15 14 14 15 15 15 15 16 16 15
32 32 32 32 31 31 30 30 32 30 29 29 28 28 26 26 25 25 25 24 22 20 20 19 21 20 19 19 19 18 17 17 16 16 15 16 15 16 15 14 14 14 14 14 15 15 15 16 15
31 31 31 32 32 30 32 31 32 32 30 31 29 28 26 26 25 25 25 23 21 20 20 20 20 20 19 19 18 18 17 17 16 15 15 15 15 15 14 13 14 14 14 14 14 14 15 16 16
32 32 30 30 30 30 30 30 31 33 31 31 31 28 27 25 25 25 24 21 20 20 20 20 20 19 19 18 18 18 17 16 15 15 16 15 15 15 14 14 14 13 13 14 13 14 14 15 15
32 33 32 28 30 31 29 30 31 31 30 30 30 29 27 25 25 24 23 21 20 20 20 20 20 19 19 19 18 17 16 16 15 15 14 15 14 14 14 13 13 13 12 12 13 13 14 14 14
32 31 34 31 31 30 32 31 31 31 30 28 28 28 28 25 25 24 23 21 21 20 20 21 20 20 19 18 18 16 14 14 14 15 14 14 14 14 14 14 13 13 12 12 12 13 13 13 13
33 34 31 32 29 28 31 30 31 31 31 31 29 28 28 25 25 24 23 22 21 20 20 21 21 20 19 18 17 16 15 14 14 14 14 14 14 14 14 13 13 13 13 12 12 13 13 12 12
31 32 32 32 31 30 30 31 32 31 32 31 30 28 27 26 25 25 24 22 21 20 20 21 21 20 19 18 16 15 15 14 14 14 14 13 13 13 13 13 14 13 13 13 12 12 13 12 12
34 33 32 31 29 31 30 30 33 32 32 31 30 28 27 26 26 25 24 22 21 20 20 20 19 18 18 17 16 15 14 14 14 14 14 13 13 13 14 14 13 13 13 13 12 12 12 11 11
Height
1499 1499 1498 1498 1491 1492 1507 1511 1505 1510 1513 1517 1520 1517 1526 1527 1524 1542 1550 1553 1555 1557 1558 1558 1560 1562 1564 1565 1567 1568 1570 1572 1573 1575 1578 1580 1581 1581 1583 1582 1584 1586 1587 1588 1589 1588 1589 1589 1589
1501 1501 1499 1491 1492 1507 1514 1503 1508 1511 1519 1522 1524 1524 1525 1536 1538 1545 1552 1556 1557 1559 1562 1562 1563 1565 1566 1569 1570 1572 1573 1575 1576 1578 1580 1583 1584 1584 1585 1585 1587 1589 1589 1590 1590 1590 1590 1591 1591
1501 1502 1499 1486 1494 1507 1515 1509 1512 1518 1521 1521 1527 1528 1532 1544 1546 1550 1554 1557 1559 1561 1563 1564 1566 1568 1570 1571 1573 1576 1577 1578 1579 1582 1583 1584 1586 1586 1588 1588 1589 1590 1591 1592 1591 1591 1592 1592 1592
1505 1505 1498 1492 1509 1506 1509 1514 1518 1520 1523 1524 1527 1533 1543 1548 1550 1553 1556 1559 1562 1564 1566 1565 1568 1570 1573 1574 1575 1578 1579 1580 1582 1584 1586 1587 1588 1589 1589 1590 1591 1592 1592 1593 1593 1592 1593 1593 1592
1507 1499 1491 1501 1509 1508 1512 1516 1516 1519 1523 1527 1529 1536 1545 1551 1553 1556 1559 1563 1565 1567 1568 1568 1571 1573 1574 1576 1578 1580 1581 1582 1584 1586 1588 1589 1590 1590 1591 1592 1592 1593 1594 1594 1594 1594 1594 1594 1593
1500 1495 1495 1507 1511 1510 1514 1517 1518 1523 1529 1531 1535 1539 1549 1553 1556 1559 1563 1565 1568 1570 1571 1571 1573 1575 1577 1578 1581 1581 1584 1585 1587 1588 1590 1591 1591 1592 1593 1593 1593 1594 1594 1594 1595 1594 1594 1593 1593
1501 1486 1498 1501 1512 1512 1514 1517 1517 1523 1528 1533 1537 1540 1553 1556 1558 1561 1564 1567 1569 1571 1573 1575 1576 1577 1577 1579 1581 1583 1585 1587 1589 1590 1592 1592 1593 1593 1594 1594 1594 1595 1595 1595 1595 1595 1593 1592 1593
1503 1491 1498 1498 1504 1515 1516 1518 1520 1523 1531 1537 1538 1541 1550 1554 1558 1561 1565 1568 1569 1572 1572 1575 1577 1579 1580 1582 1583 1584 1587 1588 1590 1591 1592 1593 1593 1594 1594 1595 1595 1595 1595 1594 1594 1594 1593 1592 1591
1505 1492 1499 1503 1500 1511 1515 1518 1524 1527 1532 1536 1538 1539 1544 1552 1558 1561 1565 1568 1570 1573 1576 1578 1578 1580 1582 1584 1584 1586 1587 1589 1591 1592 1593 1593 1596 1596 1596 1596 1594 1594 1594 1594 1593 1593 1592 1591 1591
1499 1491 1499 1502 1501 1506 1513 1516 1523 1527 1531 1537 1539 1543 1547 1552 1557 1561 1564 1567 1570 1572 1575 1578 1580 1581 1582 1586 1585 1587 1589 1590 1591 1593 1594 1594 1597 1596 1595 1595 1594 1593 1593 1592 1592 1592 1591 1590 1591
1500 1499 1504 1508 1508 1511 1515 1519 1522 1523 1524 1533 1540 1544 1549 1554 1558 1562 1565 1567 1570 1572 1575 1578 1579 1580 1582 1585 1587 1589 1591 1592 1592 1592 1593 1594 1595 1596 1596 1596 1595 1595 1593 1593 1593 1593 1593 1591 1590
1504 1507 1508 1514 1514 1513 1515 1520 1527 1528 1533 1535 1542 1548 1552 1555 1559 1562 1565 1567 1569 1571 1575 1577 1578 1579 1582 1585 1586 1589 1591 1591 1592 1593 1592 1592 1594 1594 1594 1595 1594 1593 1592 1592 1591 1592 1590 1588 1588
1504 1511 1513 1515 1516 1518 1520 1524 1531 1536 1539 1542 1546 1550 1554 1557 1560 1563 1565 1568 1569 1571 1574 1576 1577 1578 1580 1582 1586 1587 1589 1590 1592 1592 1592 1592 1592 1593 1593 1592 1592 1592 1591 1591 1590 1590 1589 1588 1587
1508 1512 1515 1517 1519 1521 1522 1527 1529 1541 1542 1546 1549 1552 1554 1557 1560 1563 1565 1567 1569 1570 1573 1575 1576 1577 1578 1579 1582 1583 1587 1588 1589 1590 1590 1589 1589 1591 1591 1591 1591 1591 1590 1587 1587 1587 1586 1586 1585
1512 1514 1518 1518 1520 1521 1522 1528 1535 1542 1544 1547 1550 1553 1555 1558 1561 1563 1565 1567 1568 1570 1572 1574 1575 1576 1576 1577 1578 1581 1584 1586 1587 1587 1586 1585 1585 1587 1585 1585 1587 1585 1585 1583 1583 1582 1582 1582 1582
1508 1509 1518 1518 1520 1522 1521 1536 1538 1542 1543 1546 1550 1553 1556 1559 1561 1563 1565 1567 1568 1569 1571 1571 1574 1575 1574 1575 1576 1577 1582 1583 1583 1583 1583 1582 1581 1581 1581 1581 1580 1580 1580 1579 1578 1578 1576 1575 1578
1507 1513 1510 1518 1518 1518 1516 1529 1536 1540 1541 1544 1549 1552 1555 1558 1561 1563 1564 1566 1567 1568 1569 1570 1571 1572 1573 1574 1575 1576 1577 1578 1579 1579 1579 1578 1577 1577 1577 1577 1576 1576 1575 1574 1573 1572 1572 1571 1570
1512 1505 1508 1514 1514 1518 1517 1524 1532 1538 1538 1542 1545 1549 1553 1555 1558 1561 1563 1564 1566 1567 1568 1568 1570 1570 1571 1572 1572 1572 1573 1573 1574 1573 1574 1573 1572 1572 1573 1572 1571 1571 1569 1567 1566 1565 1565 1565 1565
1494 1502 1506 1506 1507 1515 1516 1524 1529 1533 1537 1538 1541 1547 1550 1553 1556 1559 1561 1563 1564 1566 1567 1568 1569 1570 1570 1571 1571 1571 1571 1571 1571 1571 1570 1569 1567 1568 1568 1567 1566 1565 1564 1564 1562 1559 1558 1557 1559
1498 1503 1504 1508 1511 1514 1518 1523 1527 1531 1532 1537 1539 1543 1546 1550 1554 1558 1560 1561 1563 1565 1566 1566 1567 1568 1569 1570 1569 1568 1568 1569 1569 1567 1566 1565 1564 1563 1562 1562 1562 1561 1560 1558 1555 1554 1553 1553 1553
1498 1501 1501 1508 1514 1511 1517 1525 1528 1529 1532 1535 1538 1540 1544 1547 1550 1554 1557 1560 1562 1564 1564 1565 1566 1567 1567 1567 1567 1567 1567 1566 1566 1566 1566 1564 1560 1558 1557 1556 1556 1555 1552 1551 1550 1548 1547 1546 1547
1498 1494 1496 1503 1517 1521 1511 1521 1518 1520 1528 1530 1533 1538 1540 1544 1547 1550 1554 1558 1560 1562 1563 1563 1564 1565 1565 1566 1566 1565 1565 1565 1564 1562 1561 1558 1556 1554 1552 1551 1550 1549 1547 1545 1544 1543 1541 1541 1540
1498 1496 1499 1502 1510 1510 1518 1523 1502 1510 1519 1519 1524 1530 1536 1540 1543 1547 1551 1555 1558 1559 1561 1561 1563 1563 1564 1563 1563 1563 1563 1562 1560 1558 1556 1554 1552 1550 1548 1547 1545 1544 1543 1541 1539 1538 1537 1535 1535
1497 1501 1504 1502 1502 1524 1505 1515 1506 1500 1507 1508 1516 1523 1530 1535 1539 1543 1547 1551 1554 1557 1558 1559 1560 1561 1561 1561 1560 1559 1558 1557 1557 1555 1554 1553 1551 1549 1547 1543 1541 1540 1538 1537 1535 1533 1532 1530 1529
1492 1499 1518 1526 1525 1523 1506 1515 1506 1491 1500 1500 1505 1515 1523 1530 1535 1539 1543 1547 1550 1553 1555 1557 1558 1558 1558 1558 1557 1556 1555 1554 1553 1551 1551 1548 1548 1546 1545 1540 1539 1537 1535 1533 1531 1530 1528 1526 1524
1491 1490 1503 1535 1520 1512 1513 1519 1501 1495 1497 1500 1504 1507 1516 1524 1529 1534 1539 1544 1547 1550 1552 1553 1554 1555 1556 1555 1554 1552 1551 1553 1551 1550 1547 1546 1545 1544 1540 1538 1536 1534 1532 1530 1528 1526 1525 1523 1520
1489 1500 1481 1499 1500 1514 1496 1497 1493 1494 1497 1501 1502 1504 1509 1520 1524 1530 1536 1540 1543 1546 1548 1550 1552 1553 1553 1552 1551 1550 1548 1547 1548 1546 1544 1544 1541 1541 1539 1535 1533 1531 1530 1528 1524 1523 1521 1518 1515
1482 1477 1500 1493 1523 1528 1501 1505 1496 1492 1490 1493 1498 1501 1505 1516 1521 1526 1531 1536 1539 1542 1544 1547 1549 1549 1550 1549 1549 1548 1546 1545 1543 1542 1541 1539 1538 1537 1535 1532 1531 1529 1527 1525 1522 1520 1517 1514 1510
1487 1487 1485 1482 1495 1509 1512 1496 1479 1485 1486 1489 1493 1498 1503 1510 1515 1521 1526 1532 1535 1538 1541 1543 1545 1546 1546 1546 1545 1544 1543 1542 1540 1539 1538 1537 1535 1534 1532 1530 1527 1526 1524 1522 1519 1517 1515 1511 1507
1464 1471 1476 1494 1505 1494 1502 1498 1476 1481 1484 1487 1489 1494 1499 1504 1509 1515 1521 1527 1530 1533 1537 1540 1542 1543 1544 1543 1542 1541 1540 1538 1537 1536 1536 1534 1532 1531 1529 1527 1525 1523 1521 1518 1516 1513 1510 1506 1502
Wind_Speed
3 5 2 3 6 11 17 16 15 12 12 13 8 8 17 13 11 13 20 16 18 17 15 17 18 19 18 20 20 20 20 22 23 24 24 23 19 17 16 16 16 14 14 10 8 7 5 4 3
1 3 3 5 12 15 11 14 15 15 15 14 12 9 12 17 18 21 22 19 16 17 16 15 17 17 18 19 19 18 19 21 22 21 22 20 16 15 14 15 14 11 9 7 7 5 4 3 2
3 2 5 7 12 15 13 12 14 16 9 7 9 15 9 11 19 18 21 20 17 16 16 18 18 18 19 19 18 18 18 21 22 21 21 18 14 13 12 12 12 9 7 6 4 3 2 1 2
3 3 5 11 18 15 16 13 13 12 12 17 18 15 15 18 11 20 22 19 17 16 15 18 17 17 19 17 16 17 18 21 21 18 17 15 11 11 10 9 8 6 5 4 2 1 1 2 2
3 6 8 12 15 16 14 11 7 12 10 10 16 13 18 9 17 24 21 18 17 15 15 16 16 16 17 15 15 15 15 18 19 16 14 10 9 9 8 6 5 4 3 2 1 1 2 4 4
6 6 9 12 14 13 12 10 14 15 16 19 25 23 9 14 24 22 20 19 16 16 14 15 16 16 15 14 13 14 14 15 15 14 10 9 8 7 6 5 4 3 3 2 2 4 6 7 6
6 3 10 13 12 10 9 6 12 16 14 16 17 10 10 18 22 22 20 18 16 15 15 14 13 14 14 13 12 12 13 13 13 12 10 8 7 6 6 6 6 5 4 6 8 8 9 10 10
4 4 8 7 9 12 10 10 10 14 15 13 12 8 13 23 23 22 20 18 14 15 14 16 14 12 11 11 11 10 11 12 11 10 8 6 5 5 6 7 7 8 9 10 10 9 11 12 12
4 5 7 8 8 10 13 12 8 9 13 6 3 15 23 29 24 22 20 18 16 14 13 12 11 11 11 9 10 11 11 11 11 10 9 8 4 7 7 9 12 11 12 11 12 11 10 12 12
8 5 9 6 7 11 8 8 10 10 12 12 16 19 27 28 26 23 21 20 17 16 15 13 12 11 11 10 9 9 9 9 10 9 9 7 8 9 9 11 11 12 12 12 11 11 11 10 7
1 11 6 6 7 12 14 11 7 6 8 9 19 27 26 26 23 21 19 17 17 15 14 13 13 11 11 11 9 7 7 8 8 10 10 8 9 8 8 8 8 8 12 8 9 10 8 10 9
7 9 11 11 11 13 14 14 17 17 13 15 23 23 23 21 20 19 18 17 17 16 14 13 12 12 11 9 9 8 8 8 8 9 11 10 7 9 9 8 9 11 8 9 9 9 9 10 10
13 12 13 12 12 15 16 16 15 19 18 22 22 19 18 16 15 15 15 15 15 15 13 13 12 12 11 12 10 10 9 8 9 10 11 11 10 10 10 11 9 11 10 10 11 11 11 10 11
11 16 16 14 15 17 17 14 13 13 17 19 18 17 15 14 13 13 13 14 14 13 13 13 12 12 13 12 12 11 10 10 10 11 11 14 12 12 11 12 10 11 12 13 11 14 13 12 12
18 16 12 13 9 16 17 14 15 15 15 16 16 15 13 12 11 11 11 11 11 11 11 12 11 12 13 13 12 11 9 10 11 12 14 15 15 13 15 11 12 15 16 17 15 15 15 14 14
12 14 11 10 14 7 8 12 11 14 14 14 14 14 12 11 11 10 9 9 9 10 10 10 9 10 13 13 12 12 10 12 14 14 14 16 17 17 16 18 18 17 17 17 18 17 19 17 15
13 12 11 13 14 2 9 14 14 14 13 14 13 13 12 12 11 10 9 8 8 7 7 7 7 8 9 9 9 10 12 12 12 13 15 17 18 18 20 21 22 21 23 22 23 21 20 20 19
15 11 12 12 14 8 5 12 14 15 14 15 14 12 12 12 11 10 9 8 7 8 7 6 6 7 7 7 7 9 10 11 12 14 15 18 20 21 20 20 22 22 24 25 23 25 21 22 21
13 16 12 10 5 10 6 12 14 16 14 14 16 14 13 13 11 11 9 9 8 7 7 6 5 5 5 5 7 8 10 11 11 14 15 15 16 16 18 20 20 20 20 20 22 23 24 24 22
12 12 11 6 6 11 8 11 12 14 16 15 15 16 15 14 14 12 12 10 8 6 6 5 5 5 4 6 8 8 9 9 10 13 13 12 11 14 16 16 15 17 18 21 22 22 22 22 21
14 15 12 13 9 11 8 10 12 14 13 15 14 15 15 16 16 15 14 12 11 9 7 7 6 6 6 5 5 6 8 10 9 9 11 13 13 16 17 15 15 17 20 19 19 22 23 21 22
14 10 13 15 14 12 16 10 18 17 16 17 20 18 18 17 16 16 16 13 14 11 8 6 3 2 4 7 6 8 9 9 9 9 11 14 13 18 19 16 15 16 17 19 19 19 22 22 22
6 8 9 12 17 7 13 9 3 16 18 20 22 22 21 20 19 18 18 16 15 13 11 7 3 4 5 8 5 6 7 7 8 8 11 11 11 13 13 12 13 13 14 17 17 18 21 22 23
13 13 7 8 7 10 12 12 12 10 18 19 24 24 23 22 21 21 21 19 16 14 12 7 4 4 6 6 9 12 10 9 7 8 8 9 9 8 9 10 13 14 16 16 18 18 18 21 23
12 15 8 9 8 10 5 7 13 2 5 13 21 27 27 25 24 24 25 22 19 16 13 8 5 6 7 7 10 11 10 10 8 10 10 10 8 8 9 11 10 11 14 16 16 18 20 22 23
17 15 6 7 9 6 3 7 6 2 4 13 14 23 28 26 27 27 26 23 20 17 13 9 6 7 8 9 12 12 11 6 7 8 8 6 7 8 10 9 10 11 13 13 15 15 16 19 23
11 10 5 1 3 8 7 6 9 8 8 10 12 17 28 26 27 28 26 23 21 18 14 11 8 9 10 9 13 10 8 6 7 8 9 7 9 7 9 11 11 10 11 11 13 14 17 19 21
8 11 9 9 6 9 6 6 3 5 7 8 14 19 25 26 27 27 27 24 21 18 15 12 10 11 12 11 12 8 7 6 7 7 8 8 8 9 12 12 11 10 10 10 12 14 16 17 18
8 11 8 5 5 7 6 3 6 2 2 4 10 18 23 29 29 29 28 25 23 19 17 14 11 13 11 12 10 9 6 6 7 7 8 9 10 10 12 14 14 13 13 12 13 13 15 18 21
15 18 16 10 11 6 7 8 4 4 3 3 5 13 21 28 29 28 28 26 24 22 18 15 12 11 10 9 9 8 7 7 8 9 9 11 12 13 16 17 16 15 15 15 14 16 18 22 27
Wind_Direction
48 42 349 308 111 85 84 91 104 121 92 79 86 68 76 30 359 100 140 142 142 139 144 136 138 141 138 132 129 129 134 136 138 138 143 143 135 124 119 117 126 129 130 126 126 120 112 98 86
121 29 327 248 88 85 90 99 79 84 100 104 85 110 68 72 96 122 134 141 140 138 137 139 137 139 140 140 143 141 138 141 144 144 148 149 140 131 122 123 127 133 139 140 132 120 106 89 76
46 54 278 71 65 78 87 81 97 104 105 95 105 83 71 106 114 126 140 141 137 138 141 146 139 138 138 137 140 142 141 145 143 143 148 152 148 140 126 128 125 128 132 136 131 120 94 57 14
359 323 229 74 86 76 95 95 106 107 91 90 109 90 90 125 112 139 140 140 137 139 138 145 143 142 145 137 139 147 148 152 152 147 149 148 155 155 146 135 136 139 137 136 139 127 28 332 340
320 258 109 94 86 94 96 99 102 91 94 108 114 107 114 116 131 137 139 137 135 137 140 146 150 149 150 146 138 146 149 153 160 159 157 156 162 164 161 160 153 148 158 191 260 351 335 326 321
230 249 116 98 100 110 104 85 104 102 103 103 113 118 89 130 140 140 140 140 142 140 141 143 148 152 154 154 151 149 150 152 157 164 169 170 171 177 182 196 209 222 241 260 301 315 314 309 305
311 288 85 104 116 128 117 100 98 114 115 120 131 112 127 147 152 146 146 144 148 144 149 146 149 150 150 151 152 152 158 160 161 167 171 176 189 205 225 242 243 245 263 287 297 302 304 299 300
295 273 150 126 131 118 132 112 113 106 98 127 140 154 157 158 157 152 151 152 146 149 155 156 158 153 150 158 156 159 163 166 172 178 183 194 211 223 239 250 260 265 279 290 293 296 300 296 298
259 221 113 111 125 126 140 130 102 106 113 100 129 140 156 153 157 157 156 157 162 159 161 161 161 162 163 163 172 177 180 188 197 206 218 227 228 268 274 265 257 276 285 291 292 294 296 298 314
255 92 60 13 83 122 129 107 124 131 121 100 114 127 143 154 160 164 165 167 168 169 168 168 170 178 171 172 191 185 197 205 211 222 234 229 242 246 234 251 278 278 286 287 302 298 305 316 260
118 79 129 87 90 118 119 101 102 147 98 141 145 142 149 157 164 171 173 175 175 174 172 178 177 184 177 189 184 196 206 213 235 227 230 240 246 270 277 274 292 294 296 298 293 298 305 280 285
126 77 104 98 120 125 101 99 71 66 70 119 138 143 150 159 169 176 180 180 182 184 181 184 191 187 187 202 199 209 213 224 230 247 251 252 266 269 272 269 274 286 286 279 279 276 271 286 283
114 100 105 119 121 114 108 90 94 86 99 119 132 140 150 158 168 178 185 188 190 191 191 195 199 201 201 205 211 207 223 240 235 248 256 248 255 266 275 260 278 274 274 290 286 284 279 280 281
121 120 118 118 123 121 113 117 110 107 117 125 136 142 148 153 159 166 179 189 195 197 200 201 208 214 219 217 220 218 230 230 247 245 250 260 254 265 270 289 286 286 285 283 273 279 274 276 275
134 130 137 134 138 129 121 97 101 131 132 135 141 145 145 145 147 157 166 177 187 197 203 210 217 222 233 235 234 234 236 247 248 253 260 256 262 272 270 274 270 270 268 281 288 283 280 279 273
171 162 162 163 163 161 259 116 134 146 141 142 148 152 156 158 155 156 164 169 182 189 201 208 209 227 238 241 242 245 241 250 254 254 257 264 265 276 274 277 278 278 280 278 278 275 274 274 271
183 185 199 165 193 173 272 124 147 157 155 153 166 167 172 172 173 173 177 181 187 189 199 202 215 213 220 231 231 241 242 250 256 257 256 258 271 276 276 275 275 278 281 275 278 274 268 266 261
190 218 190 189 188 210 215 115 152 165 164 164 168 177 182 183 178 181 183 185 189 193 195 190 190 193 199 210 230 247 259 257 259 270 277 280 277 274 274 276 277 280 281 281 276 270 266 260 259
195 219 195 199 162 208 202 153 161 166 174 166 168 178 186 187 181 185 190 189 187 189 191 191 186 195 210 248 268 281 281 282 278 280 283 282 286 285 280 281 279 281 278 273 269 274 266 261 255
233 211 210 135 197 219 159 175 166 176 179 181 175 178 185 183 186 193 197 197 194 191 190 192 199 217 249 268 278 294 301 300 293 298 299 294 286 284 285 281 278 275 274 274 273 268 264 257 251
206 216 205 217 183 213 173 185 192 192 189 187 199 193 191 191 190 193 200 204 199 197 191 203 229 250 268 278 303 317 321 327 310 292 293 284 293 292 293 289 282 277 280 276 272 272 266 258 251
196 222 249 195 191 208 205 234 192 194 203 200 195 200 196 190 188 188 190 194 191 192 183 196 192 278 283 300 297 289 298 297 283 306 295 299 297 293 294 293 290 282 278 274 275 275 275 262 257
90 140 163 186 212 160 189 258 107 190 208 208 207 198 202 197 191 187 185 184 185 178 168 168 231 262 281 299 307 327 306 304 307 307 306 315 312 302 295 293 293 293 290 283 283 277 273 271 261
130 126 134 192 197 222 228 219 262 188 231 218 204 206 199 198 194 190 185 182 181 177 170 179 250 257 297 301 329 325 319 316 312 298 315 314 313 311 303 302 294 294 292 290 285 283 281 277 272
180 173 178 203 202 243 89 238 259 288 194 235 206 205 199 198 197 192 186 185 182 179 173 186 241 267 297 297 314 323 319 308 311 310 311 316 311 307 302 314 311 309 302 300 295 289 284 280 276
202 204 241 211 236 231 140 241 243 340 282 221 230 210 203 199 195 194 191 187 184 181 181 202 230 261 283 302 313 319 317 297 297 300 302 308 303 305 310 325 324 320 316 307 301 300 291 287 284
173 214 302 307 258 270 236 191 267 210 230 218 223 217 200 197 193 193 192 191 186 182 189 205 226 253 271 288 308 306 293 283 275 290 299 297 306 304 305 324 323 322 323 321 310 306 295 294 295
235 184 197 218 259 254 180 255 242 181 230 217 220 211 196 196 196 195 195 194 189 185 191 204 231 253 268 286 294 291 278 270 285 299 302 295 300 308 321 319 306 304 312 328 333 321 316 308 302
182 206 230 305 317 299 249 190 117 324 162 206 213 205 198 196 199 198 198 196 191 188 193 208 233 249 269 281 285 294 269 272 285 296 296 294 291 301 313 315 314 300 296 301 312 316 324 324 319
221 214 198 224 184 229 307 301 113 180 175 217 220 202 202 201 200 200 198 196 193 191 195 205 219 235 254 262 274 276 263 273 281 289 290 289 286 290 304 309 308 301 292 289 297 307 314 322 322